Flag for India Weather past 2 weeks in Tarn Taran Sahib, Punjab, India

Now
73 °F

Fog.


Feels Like: 72 °F
Forecast: 67 / 87 °F
Wind: 6 mph from Southeast

Location: Amritsar Airport

Current Time: Oct 26, 2014 at 10:17:54 AM

Latest Report: Oct 26, 2014 at 9:30 AM


Visibility: 1 mi

Pressure: 30.07 "Hg

Humidity: 89%

Dew point: 70 °F

Location of Tarn Taran SahibLocation

Historic Weather in Tarn Taran Sahib — Graph

°F

Tarn Taran Sahib temperature yesterday

Maximum temperature yesterday: 84 °F (at 2:00 PM)
Minimum temperature yesterday: 61 °F (at 5:30 AM)
Average temperature yesterday: 72 °F

Past Weeks' High & Low Weather Summary

 TemperatureHumidityPressure
High90 °F (Oct 12, 2:30 PM)100% (Oct 12, 1:00 AM)30.09 "Hg (Oct 12, 1:00 AM)
Low57 °F (Oct 15, 7:00 AM)35% (Oct 12, 4:00 PM)29.77 "Hg (Oct 11, 5:00 PM)
Average72 °F76%29.94 "Hg
* Reported Oct 11 8:30 AM — Oct 26 8:30 AM, Tarn Taran Sahib, Weather by CustomWeather, © 2014

Note: Actual official high and low records may vary slightly from our data, if they occured in-between our weather recording intervals... More about our weather records

Advertising

Tarn Taran Sahib weather history for previous 24 hours

 ConditionsComfort  
Time TempWeatherWind HumidityBarometerVisibility
8:30 AM
Oct 26
68 °FFog.5 mph94%30.07 "Hg1 mi
8:00 AM66 °FFog.5 mph100%30.04 "Hg1 mi
7:30 AM64 °FFog.5 mph100%30.04 "Hg1 mi
7:00 AM63 °FFog.3 mph100%30.01 "Hg1 mi
6:30 AM66 °FFog.No wind94%30.01 "Hg1 mi
6:00 AM64 °FFog.3 mph94%30.01 "Hg1 mi
5:30 AM66 °FFog.No wind94%29.98 "Hg1 mi
5:00 AM66 °FFog.No wind94%29.98 "Hg1 mi
4:30 AM64 °FFog.No wind100%29.98 "Hg1 mi
4:00 AM66 °FFog.No wind94%29.98 "Hg1 mi
12:00 AM68 °FFog.5 mph88%29.98 "Hg1 mi
11:30 PM
Oct 25
68 °FFog.5 mph88%29.98 "Hg1 mi
11:00 PM70 °FFog.No wind83%29.98 "Hg2 mi
10:30 PM72 °FFog.No wind78%29.98 "Hg2 mi
10:00 PM72 °FFog.No wind83%29.95 "Hg2 mi
9:30 PM70 °FFog.No wind88%29.95 "Hg2 mi
9:00 PM72 °FFog.No wind83%29.95 "Hg2 mi
8:30 PM72 °FFog.No wind78%29.95 "Hg2 mi
8:00 PM73 °FHaze.No wind78%29.92 "Hg2 mi
7:30 PM73 °FHaze.No wind78%29.92 "Hg2 mi
7:00 PM73 °FHaze.No wind74%29.92 "Hg2 mi
6:30 PM77 °FHaze.No wind65%29.89 "Hg2 mi
6:00 PM77 °FHaze.No wind65%29.89 "Hg3 mi
5:30 PM81 °FHaze.2 mph54%29.89 "Hg3 mi
5:00 PM81 °FClear.1 mph54%29.89 "Hg3 mi
4:30 PM82 °FHaze.6 mph51%29.89 "Hg3 mi
4:00 PM82 °FClear.7 mph51%29.86 "Hg4 mi
3:30 PM84 °FClear.7 mph45%29.89 "Hg4 mi
3:00 PM84 °FClear.8 mph48%29.89 "Hg4 mi
2:30 PM82 °FClear.9 mph48%29.89 "Hg4 mi
2:00 PM84 °FClear.8 mph45%29.89 "Hg4 mi
1:30 PM82 °FSunny.7 mph51%29.89 "Hg4 mi
1:00 PM82 °FHaze.6 mph51%29.92 "Hg3 mi
12:30 PM81 °FHaze.6 mph58%29.95 "Hg3 mi
12:00 PM81 °FHaze.5 mph58%29.95 "Hg3 mi
11:30 AM79 °FHaze.2 mph65%29.95 "Hg3 mi
10:30 AM75 °FHaze.3 mph74%29.95 "Hg2 mi
10:00 AM72 °FHaze.2 mph83%29.95 "Hg2 mi
Weather by CustomWeather, © 2014

See weather overviewHow to use our weather pages